Weather History for Lancaster, PA

Change the Weather History Date:

Thursday, January 3, 2013

  Actual Average Record
Temperature  
Mean Temperature 26 °F -  
Max Temperature 33 °F 39 °F 73 °F (2000)
Min Temperature 19 °F 23 °F 3 °F (2014)
Degree Days  
Heating Degree Days 39    
Moisture  
Dew Point 15 °F    
Average Humidity 63    
Maximum Humidity 75    
Minimum Humidity 50    
Precipitation  
Precipitation 0.00 in - - ()
Sea Level Pressure  
Sea Level Pressure 30.18 in    
Wind  
Wind Speed 5 mph (West)    
Max Wind Speed 12 mph    
Max Gust Speed 17 mph    
Visibility 10 miles    
Events      
Averages and records for this station are not official NWS values.
T = Trace of Precipitation, MM = Missing Value Source: NWS Daily Summary

Daily Weather History Graph

Daily Weather History Graph

Search for Another Location

Airport:

Trip Planner

Search our weather history database for the weather conditions in past years. The results will help you decide how hot, cold, wet, or windy it might be!

Date:

Astronomy

Jan. 03, 2013 Rise Set
Actual Time 7:27 AM EST 4:52 PM EST
Civil Twilight 6:57 AM EST 5:22 PM EST
Nautical Twilight 6:23 AM EST 5:56 PM EST
Astronomical Twilight 5:50 AM EST 6:29 PM EST
Moon 11:25 PM EST (1/3) 10:37 AM EST (1/3)
Length of Visible Light 10h 25m
Length of Day
9h 24m
Waning Gibbous, 65% of the Moon is Illuminated
Jan 3
Waning Gibbous
Jan 4
Last Quarter
Jan 11
New
Jan 18
First Quarter
Jan 26
Full

Hourly Weather History & Observations

Time (EST) Temp. Windchill Dew Point Humidity Pressure Visibility Wind Dir Wind Speed Gust Speed Precip Events Conditions
12:53 AM 23.0 °F 18.4 °F 14.0 °F 68% 30.22 in 10.0 mi West 3.5 mph - N/A   Clear
1:53 AM 24.1 °F 16.0 °F 15.1 °F 69% 30.22 in 10.0 mi WNW 6.9 mph - N/A   Clear
2:53 AM 21.9 °F 15.7 °F 15.1 °F 75% 30.22 in 10.0 mi WNW 4.6 mph - N/A   Clear
3:53 AM 21.9 °F 17.2 °F 12.9 °F 68% 30.22 in 10.0 mi West 3.5 mph - N/A   Clear
4:53 AM 21.0 °F 13.4 °F 12.9 °F 71% 30.22 in 10.0 mi West 5.8 mph - N/A   Clear
5:53 AM 19.0 °F 12.3 °F 12.0 °F 74% 30.22 in 10.0 mi West 4.6 mph - N/A   Clear
6:53 AM 19.9 °F 13.4 °F 12.0 °F 71% 30.22 in 10.0 mi West 4.6 mph - N/A   Clear
7:53 AM 19.9 °F - 12.0 °F 71% 30.22 in 8.0 mi Calm Calm - N/A   Clear
8:53 AM 24.1 °F 14.4 °F 14.0 °F 65% 30.23 in 9.0 mi West 9.2 mph - N/A   Clear
9:53 AM 26.1 °F 17.6 °F 14.0 °F 60% 30.24 in 10.0 mi WNW 8.1 mph - N/A   Clear
10:53 AM 27.0 °F 18.7 °F 12.9 °F 56% 30.22 in 10.0 mi WNW 8.1 mph - N/A   Clear
11:53 AM 28.9 °F 20.4 °F 14.0 °F 54% 30.19 in 10.0 mi West 9.2 mph - N/A   Clear
12:53 PM 30.9 °F 21.7 °F 14.0 °F 50% 30.16 in 10.0 mi West 11.5 mph 17.3 mph N/A   Clear
1:53 PM 32.0 °F 24.8 °F 16.0 °F 52% 30.13 in 10.0 mi West 8.1 mph - N/A   Clear
2:53 PM 33.1 °F 27.7 °F 16.0 °F 50% 30.13 in 10.0 mi West 5.8 mph - N/A   Clear
3:53 PM 32.0 °F 25.6 °F 16.0 °F 52% 30.13 in 9.0 mi SW 6.9 mph - N/A   Clear
4:53 PM 30.0 °F 24.1 °F 16.0 °F 56% 30.14 in 8.0 mi WSW 5.8 mph - N/A   Clear
5:53 PM 28.9 °F 23.9 °F 16.0 °F 58% 30.14 in 9.0 mi WSW 4.6 mph - N/A   Clear
7:53 PM 27.0 °F 20.5 °F 17.1 °F 66% 30.14 in 9.0 mi WSW 5.8 mph - N/A   Clear
8:53 PM 26.1 °F 21.9 °F 17.1 °F 69% 30.14 in 8.0 mi WNW 3.5 mph - N/A   Clear
9:53 PM 27.0 °F 23.0 °F 17.1 °F 66% 30.14 in 9.0 mi WSW 3.5 mph - N/A   Overcast
10:53 PM 28.9 °F 23.9 °F 19.0 °F 67% 30.14 in 9.0 mi West 4.6 mph - N/A   Overcast
11:53 PM 28.9 °F 25.2 °F 19.0 °F 67% 30.14 in 10.0 mi WSW 3.5 mph - N/A   Overcast